This is the latest recevied weather packets stored in our database for station/object WB4ZUT. If no packets are shown the sender has not sent any weather packets the latest 10 day(s).
| Time | Temp. | Humidity | Pressure | Rain* | Wind** | Luminosity | Snow |
|---|---|---|---|---|---|---|---|
| 1777780140 | 4.44° C | 96% | 1019.9 hPa | 0 mm | - | 0 W/m² | - |
| 1777779838 | 5° C | 95% | 1019.9 hPa | 0 mm | - | 0 W/m² | - |
| 1777779535 | 5° C | 96% | 1019.8 hPa | 0 mm | - | 0 W/m² | - |
| 1777779232 | 5° C | 95% | 1019.9 hPa | 0 mm | - | 0 W/m² | - |
| 1777778930 | 5° C | 95% | 1019.8 hPa | 0 mm | - | 0 W/m² | - |
| 1777778629 | 5° C | 95% | 1019.8 hPa | 0 mm | - | 0 W/m² | - |
| 1777778326 | 5° C | 94% | 1020 hPa | 0 mm | - | 0 W/m² | - |
| 1777778023 | 5° C | 94% | 1019.5 hPa | 0 mm | - | 0 W/m² | - |
| 1777777719 | 5.56° C | 94% | 1019.9 hPa | 0 mm | - | 0 W/m² | - |
| 1777777416 | 5.56° C | 94% | 1019.7 hPa | 0 mm | - | 0 W/m² | - |
| 1777777113 | 5.56° C | 93% | 1019.8 hPa | 0 mm | - | 0 W/m² | - |
| 1777776811 | 5.56° C | 93% | 1019.8 hPa | 0 mm | - | 0 W/m² | - |
| 1777776507 | 5.56° C | 92% | 1019.8 hPa | 0 mm | - | 0 W/m² | - |
| 1777776204 | 6.11° C | 91% | 1019.6 hPa | 0 mm | - | 0 W/m² | - |
| 1777775901 | 6.11° C | 91% | 1019.8 hPa | 0 mm | - | 0 W/m² | - |
| 1777775598 | 6.11° C | 90% | 1019.6 hPa | 0 mm | - | 0 W/m² | - |
| 1777775295 | 5.56° C | 89% | 1019.5 hPa | 0 mm | - | 0 W/m² | - |
| 1777774995 | 6.11° C | 88% | 1019.4 hPa | 0 mm | - | 0 W/m² | - |
| 1777774691 | 6.11° C | 88% | 1019.4 hPa | 0 mm | - | 0 W/m² | - |
| 1777774388 | 6.67° C | 87% | 1019.3 hPa | 0 mm | - | 0 W/m² | - |
| 1777774085 | 6.67° C | 86% | 1019.2 hPa | 0 mm | - | 0 W/m² | - |
| 1777773783 | 7.22° C | 86% | 1019.3 hPa | 0 mm | - | 0 W/m² | - |
| 1777773479 | 7.22° C | 85% | 1019.4 hPa | 0 mm | - | 0 W/m² | - |
| 1777773176 | 7.22° C | 83% | 1019.2 hPa | 0 mm | - | 0 W/m² | - |
| 1777772871 | 7.78° C | 83% | 1019.1 hPa | 0 mm | - | 0 W/m² | - |
* Rain latest hour (hover to see other rain measurements)
** Current wind speed in m/s (hover to see current wind gust speed)